カタログに戻る

CZ-4 DEB

運用中SSO
NORAD 26208·DEBRIS·🇨🇳 China

打ち上げ Oct 14, 1999 から Taiyuan Satellite Launch Center

Loading…

次のパス (今後24時間)

TLE

最新Source: Space-Track

元期: Sep 14, 2026, 10:15 UTC

1 26208U 99057CW  26257.42722888  .00000390  00000-0  99052-4 0  9992
2 26208  98.5532 238.0869 0068534 218.5076 295.2103 14.55156971400339

AllMySatでCZ-4 DEBをリアルタイム追跡

Download on the App Store